Weather in Alvor

Portugal     37°07′54″N   8°35′28″W
temp.,
°C
wind,
m/s
gust,
m/s
humid.,
%
clouds,
%
prec.,
mm/h
press.,
hPa
HPBL,
m
23 january, sat
sat2300:00+9wnw239125 0.0 102375
03:00+10w369413 0.1 1022151
06:00+10w259062 0.3 1022131
09:00+12wsw399075 0.1 1022615
12:00+15wsw697866 0.2 1022952
15:00+13wsw51190100 0.1 1019747
18:00+14wsw51194100 0.3 1019795
21:00+15w51294100 0.4 1018872
24 january, sun
sun2400:00+14w41293100 0.8 1018639
03:00+14w31096100 0.3 1018574
06:00+13wnw3797100 1.3 1018322
09:00+13wnw1295100 0.0 1019152
12:00+15nw1278100 0.1 1019544
15:00+17w4780100 0.1 1017770
18:00+14w3996100 0.6 1017402
21:00+13wsw2596100 0.0 1019149
25 january, mon
mon2500:00+11wsw0193100 0.0 101928
03:00+14sw3119789 0.1 1017580
06:00+11ese129793 0.1 101829
09:00+13se239786 0.1 1020135
12:00+17wnw697736 0.4 10201050
15:00+16wnw477993 0.1 1019795
18:00+14wnw239096 0.1 102176
21:00+12nw229739 0.0 102350
26 january, tue
tue2600:00+11wnw119634 0.0 102436
03:00+11w119631 0.0 102446
06:00+12sw119845 0.0 102428
09:00+13sse119994 0.2 102655
12:00+15ssw019797 0.5 102688
15:00+18w128994 0.1 1026329
18:00+15nnw229686 0.1 102641
21:00+14nw119797 0.0 102731
27 january, wed
wed2700:00+15nnw129798 0.0 102746
03:00+13n129686 0.0 102623
06:00+12nne129455 0.0 102625
09:00+14nne129499 0.0 102796
12:00+18nne227999 0.0 1028517
15:00+20sw026894 0.0 1026643
18:00+15nne1187100 0.0 102728
21:00+14nne2395100 0.0 102746